[[{"header":{"parameterUnit":"m.s-1","parameterCategory":1,"la1":30.2991,"la2":30.254,"lo1":-89.0895,"lo2":-89.0444,"dy":0.0017,"dx":0.0017,"nx":28,"ny":28,"refTime":"2024-05-27T03:00:00:Z","depth":0,"parameterNumber":2,"parameterNumberName":"U-component_of_WINDS"},"data":[0,0,0,0,0,0,0,0,0,0,0,0,0,0,0,0,0,0,0,0,0,0,0,0,0,0,0,0,0,0,0,0,0,0,0,0,0,0,0,0,0,0,0,0,0,0,0,0,0,0,0,0,0,0,0,0,0,0,0.3239,0.324,0,0.3321,0.3322,0.3323,0.3364,0.3364,0.3364,0.3364,0.3449,0.3451,0.3453,0,0,0,0,0,0,0,0,0,0,0,0,0,0.3116,0.3118,0.3239,0.324,0.3241,0.3321,0.3322,0.3323,0.3364,0.3364,0.3364,0.3364,0.3448,0.3451,0.3454,0,0,0,0,0,0,0,0,0,0,0,0,0,0.3181,0.3119,0.3238,0.3271,0.3275,0.3321,0.3322,0.3323,0.3364,0.3364,0.3364,0.3364,0.3447,0.3451,0.3454,0.3474,0,0,0.3464,0.3466,0,0,0,0,0,0,0,0,0.3177,0.3185,0.3265,0.3269,0.3273,0.3332,0.331,0.3374,0.3364,0.333,0.3364,0.3364,0.341,0.3417,0.3432,0.3478,0.3482,0.3465,0.3467,0.3468,0.3469,0,0,0,0,0,0,0,0.3173,0.3182,0.3271,0.3266,0.3271,0.3281,0.329,0.3322,0.3369,0.3333,0.3336,0.3346,0.3412,0.3429,0.3434,0.3483,0.3464,0.3467,0.3469,0.3471,0.3548,0.3549,0,0,0,0,0,0,0.3163,0.3178,0.3269,0.3274,0.3224,0.3283,0.3294,0.3313,0.3369,0.3377,0.3345,0.3347,0.3423,0.343,0.3437,0.3464,0.3468,0.3471,0.3473,0.3548,0.3548,0.3549,0,0,0,0,0,0,0.316,0.3171,0.3265,0.3227,0.324,0.3285,0.3307,0.3315,0.3331,0.3378,0.3387,0.3354,0.3423,0.3433,0.3464,0.3468,0.3473,0.3476,0.3548,0.3548,0.3549,0.3518,0,0,0,0,0,0,0.3157,0.317,0.3178,0.3227,0.3242,0.3291,0.3307,0.3317,0.3337,0.334,0.3388,0.3396,0.3424,0.3459,0.3468,0.3472,0.3478,0.3548,0.3548,0.3548,0.3519,0.3517,0.3515,0,0,0,0,0,0.3152,0.3166,0.3178,0.3189,0.3253,0.3291,0.33,0.3332,0.3337,0.3346,0.3375,0.3394,0.3466,0.3462,0.3472,0.3478,0.3548,0.3548,0.3548,0.352,0.3517,0.3515,0,0,0,0,0,0,0.3117,0.3173,0.3187,0.3218,0.3249,0.3298,0.331,0.3328,0.3359,0.3361,0.3399,0.3409,0.3437,0.3461,0.3456,0.35,0.3509,0.3511,0.3483,0.3482,0.348,0.3474,0.3481,0,0,0,0,0,0.3113,0.3139,0.3187,0.3209,0.3224,0.3264,0.3282,0.3304,0.3338,0.3352,0.3384,0.3417,0.3446,0.3465,0.3495,0.3522,0.3533,0.3531,0.3529,0.3527,0.3529,0.3544,0.3543,0.3549,0.3549,0.3549,0,0,0.3104,0.3138,0.3153,0.3203,0.323,0.3256,0.3275,0.3302,0.3322,0.3356,0.3388,0.3412,0.3451,0.348,0.3495,0.3501,0.3529,0.3527,0.3526,0.3528,0.3544,0.3543,0.3543,0.3549,0.3549,0.3549,0,0,0.3103,0.3131,0.3152,0.3179,0.3219,0.3246,0.325,0.3296,0.3314,0.3346,0.3372,0.3396,0.3446,0.3473,0.3493,0.3499,0.3517,0.3508,0.3499,0.3513,0.3512,0.3512,0.3514,0.3514,0.3509,0.3509,0.3509,0,0.3087,0.3128,0.3161,0.3187,0.3207,0.3239,0.326,0.3284,0.3332,0.3346,0.3352,0.3415,0.3443,0.3479,0.348,0.3495,0.3502,0.3503,0.351,0.351,0.351,0.3512,0.3513,0.3507,0.3508,0.3508,0.3508,0,0.3106,0.3134,0.3146,0.3192,0.3214,0.3237,0.3273,0.3292,0.3311,0.3336,0.3368,0.3403,0.3441,0.345,0.347,0.3488,0.349,0.3502,0.3513,0.3508,0.351,0.3511,0.3505,0.3506,0.3506,0.3507,0,0,0.3086,0.3148,0.3152,0.3173,0.3219,0.3241,0.3265,0.3301,0.3316,0.3348,0.3369,0.341,0.3421,0.3444,0.3466,0.3478,0.348,0.3489,0.349,0.3486,0.3502,0.3493,0.3493,0.3493,0.3493,0.3493,0.3499,0,0.3091,0.3136,0.3166,0.3199,0.3224,0.3254,0.3275,0.3305,0.3329,0.3354,0.338,0.3409,0.3421,0.3435,0.3449,0.3477,0.3484,0.3477,0.3512,0.3513,0.3502,0.3495,0.3485,0.3489,0.35,0.35,0.35,0,0.3103,0.3133,0.3168,0.3211,0.3223,0.3241,0.3276,0.3299,0.3334,0.335,0.3375,0.3397,0.3423,0.3431,0.3467,0.3462,0.3478,0.3494,0.3494,0.3499,0.3507,0.3499,0.3491,0.3491,0.3502,0.3502,0.3502,0,0.3084,0.3134,0.3161,0.3178,0.3228,0.324,0.3262,0.3296,0.3315,0.3346,0.3358,0.3391,0.3409,0.3434,0.3464,0.3467,0.3497,0.3507,0.3512,0.3511,0.3517,0.3516,0.3511,0.3527,0.3527,0.3527,0.3527,0,0.3086,0.3107,0.3153,0.317,0.3194,0.3227,0.3249,0.3273,0.3303,0.3325,0.3352,0.3372,0.3411,0.3435,0.3459,0.3485,0.3493,0.3507,0.3513,0.3505,0.3503,0.3516,0.3517,0.3527,0.3527,0.3527,0.3527,0,0.3069,0.3102,0.3133,0.3178,0.3189,0.3205,0.3243,0.326,0.3285,0.3312,0.332,0.3359,0.3389,0.3421,0.3462,0.3478,0.3503,0.3512,0.3491,0.3495,0.3497,0.3496,0.35,0.3502,0.3516,0.3516,0.3516,0,0.3069,0.3085,0.3131,0.3148,0.3168,0.3194,0.3214,0.3247,0.3266,0.3306,0.3318,0.335,0.3377,0.3423,0.3455,0.3486,0.3496,0.3495,0.3501,0.3491,0.3496,0.3494,0.3496,0.3494,0.3493,0.3493,0.3493,0,0.3064,0.3079,0.3106,0.3139,0.3161,0.3188,0.3216,0.3228,0.3267,0.3287,0.3317,0.3338,0.3379,0.341,0.3445,0.3467,0.3486,0.349,0.3493,0.3485,0.3472,0.3478,0.3486,0.349,0.3491,0.3491,0.3491,0.3491,0.3056,0.3072,0.3106,0.3135,0.3159,0.3185,0.3203,0.3229,0.3255,0.3291,0.3309,0.3339,0.3372,0.3421,0.3442,0.3466,0.3472,0.3476,0.3477,0.3477,0.3475,0.3468,0.3472,0.3472,0.3472,0.3473,0.3473,0,0.3053,0.3076,0.3102,0.3141,0.3163,0.3178,0.321,0.3228,0.3254,0.3283,0.3309,0.3343,0.3373,0.3406,0.3438,0.3451,0.346,0.3458,0.3457,0.3462,0.3468,0.3462,0.345,0.345,0.345,0.345,0.345,0.345,0.3054,0.3081,0.3099,0.3138,0.3161,0.3191,0.3207,0.323,0.3254,0.3291,0.3315,0.3337,0.3367,0.3401,0.3429,0.3438,0.3448,0.3443,0.3455,0.346,0.3462,0.3463,0.3458,0.3445,0.3445,0.3447,0.3447,0.3447]},{"header":{"parameterUnit":"m.s-1","parameterCategory":1,"la1":30.2991,"la2":30.254,"lo1":-89.0895,"lo2":-89.0444,"dy":0.0017,"dx":0.0017,"nx":28,"ny":28,"refTime":"2024-05-27T03:00:00:Z","depth":0,"parameterNumber":3,"parameterNumberName":"V-component_of_WINDS"},"data":[0,0,0,0,0,0,0,0,0,0,0,0,0,0,0,0,0,0,0,0,0,0,0,0,0,0,0,0,0,0,0,0,0,0,0,0,0,0,0,0,0,0,0,0,0,0,0,0,0,0,0,0,0,0,0,0,0,0,2.9541,2.9541,0,2.9535,2.9535,2.9535,2.9478,2.9477,2.9475,2.9474,2.9467,2.9468,2.947,0,0,0,0,0,0,0,0,0,0,0,0,0,2.9505,2.9506,2.9541,2.9541,2.9541,2.9535,2.9535,2.9534,2.9478,2.9476,2.9475,2.9473,2.9467,2.9468,2.947,0,0,0,0,0,0,0,0,0,0,0,0,0,2.9512,2.9506,2.9541,2.9512,2.951,2.9535,2.9535,2.9534,2.9479,2.9476,2.9474,2.9472,2.9467,2.9468,2.947,2.9523,0,0,2.9475,2.9476,0,0,0,0,0,0,0,0,2.9511,2.9513,2.9517,2.9514,2.9511,2.9505,2.9519,2.953,2.9479,2.949,2.9474,2.9471,2.9482,2.9482,2.9485,2.9522,2.9522,2.9475,2.9476,2.9477,2.9477,0,0,0,0,0,0,0,2.9511,2.9513,2.9539,2.9517,2.9514,2.9499,2.9498,2.9521,2.9498,2.9489,2.9485,2.9485,2.948,2.9484,2.9485,2.9522,2.9475,2.9477,2.9478,2.9478,2.96,2.9603,0,0,0,0,0,0,2.9514,2.9513,2.9539,2.9538,2.9506,2.9502,2.95,2.9509,2.9497,2.9494,2.9487,2.9482,2.9482,2.9483,2.9484,2.9544,2.9477,2.9479,2.948,2.9598,2.9601,2.9603,0,0,0,0,0,0,2.9514,2.9517,2.9539,2.9525,2.9526,2.9505,2.9515,2.951,2.9514,2.9496,2.9491,2.9495,2.948,2.9482,2.9513,2.9543,2.9479,2.9481,2.9596,2.9599,2.9602,2.9666,0,0,0,0,0,0,2.9513,2.9517,2.9538,2.9525,2.9527,2.9569,2.9517,2.9512,2.9517,2.9511,2.9502,2.9499,2.9479,2.9511,2.9515,2.9545,2.9482,2.9593,2.9597,2.9601,2.9661,2.9671,2.968,0,0,0,0,0,2.9512,2.9556,2.9539,2.9542,2.9552,2.957,2.9571,2.9547,2.952,2.954,2.9528,2.9499,2.954,2.9515,2.9519,2.9549,2.9591,2.9596,2.9601,2.9657,2.9669,2.9679,0,0,0,0,0,0,2.9573,2.9554,2.9535,2.9576,2.9575,2.9561,2.9585,2.9561,2.9568,2.9562,2.9532,2.9531,2.9566,2.9561,2.9533,2.9599,2.956,2.9566,2.9601,2.9613,2.9622,2.9623,2.9484,0,0,0,0,0,2.9591,2.9607,2.959,2.9628,2.9629,2.9607,2.9614,2.9596,2.9594,2.9593,2.9583,2.9582,2.9595,2.9603,2.9614,2.966,2.9657,2.9683,2.9692,2.97,2.9705,2.9729,2.974,2.962,2.962,2.962,0,0,2.9629,2.962,2.9633,2.964,2.9637,2.9655,2.9607,2.9628,2.9641,2.9596,2.9625,2.9618,2.9615,2.9653,2.967,2.965,2.9738,2.9706,2.9713,2.9714,2.9735,2.9746,2.9757,2.9623,2.9623,2.9622,0,0,2.9706,2.9702,2.9733,2.9731,2.9727,2.9712,2.9719,2.9708,2.9702,2.973,2.9697,2.9711,2.9733,2.9732,2.9735,2.9811,2.9785,2.9815,2.9864,2.9887,2.9896,2.9904,2.9931,2.9941,2.9821,2.9821,2.9821,0,2.9754,2.9779,2.9752,2.9775,2.9779,2.9739,2.9769,2.9769,2.9769,2.9772,2.975,2.9776,2.9771,2.9808,2.9827,2.983,2.9838,2.9816,2.9897,2.9905,2.9912,2.9937,2.9948,2.9824,2.9824,2.9824,2.9823,0,2.9838,2.9856,2.9881,2.9881,2.9888,2.9915,2.9891,2.9902,2.9882,2.9869,2.9898,2.9891,2.9899,2.9906,2.9888,2.9941,2.9929,2.9902,2.9862,2.9928,2.9951,2.996,2.983,2.9828,2.9827,2.9826,0,0,2.9954,2.9938,2.9948,2.9947,2.9939,2.9952,2.9977,2.9984,2.9993,2.9994,3.0014,3.0033,3.0008,3.0011,2.9992,3.0012,3.0072,2.9983,2.9982,2.9999,3.013,3.015,3.0162,3.0055,3.0057,3.0058,3.013,0,3.0029,3.007,3.0045,3.009,3.0106,3.0067,3.0089,3.0086,3.0075,3.0086,3.0074,3.0088,3.0054,3.0055,3.0073,3.0061,3.0098,3.0056,3.0073,3.0074,3.0075,3.0174,3.0195,3.0264,3.0139,3.0141,3.0142,0,3.0121,3.0126,3.0172,3.016,3.0165,3.0185,3.0189,3.0201,3.0197,3.0187,3.019,3.0165,3.0188,3.0149,3.018,3.0152,3.0157,3.0152,3.0154,3.0155,3.0112,3.0177,3.0285,3.0296,3.0156,3.0155,3.0154,0,3.0201,3.0218,3.0248,3.0248,3.0235,3.025,3.0245,3.0239,3.0245,3.0248,3.0251,3.0258,3.0262,3.0267,3.0245,3.0219,3.0279,3.0238,3.0272,3.0273,3.0286,3.0286,3.0397,3.029,3.029,3.029,3.029,0,3.0287,3.0316,3.0283,3.0302,3.0333,3.0305,3.0337,3.0328,3.0323,3.0339,3.0306,3.0321,3.0291,3.0304,3.0286,3.0315,3.0317,3.0309,3.0304,3.0312,3.0313,3.0316,3.031,3.0293,3.0292,3.0292,3.0291,0,3.0382,3.0361,3.039,3.0375,3.0372,3.0396,3.0383,3.0399,3.0385,3.0405,3.0408,3.0387,3.0399,3.0378,3.0388,3.0376,3.0416,3.0404,3.0417,3.0413,3.0448,3.0445,3.0564,3.0578,3.0463,3.0464,3.0465,0,3.0438,3.0459,3.0446,3.0454,3.0451,3.0464,3.0469,3.0442,3.0449,3.0445,3.0462,3.0472,3.0478,3.05,3.0486,3.0493,3.0481,3.0522,3.0482,3.0489,3.0481,3.048,3.0482,3.053,3.0532,3.0533,3.0534,0,3.0539,3.0527,3.0536,3.0541,3.0548,3.0551,3.0551,3.0559,3.053,3.054,3.0552,3.0557,3.0567,3.0577,3.0581,3.0576,3.055,3.0547,3.0555,3.0563,3.057,3.0566,3.0439,3.0544,3.0543,3.0542,3.0542,3.0541,3.0616,3.0633,3.0626,3.0636,3.0634,3.0634,3.0649,3.0636,3.0646,3.0651,3.0635,3.0651,3.0645,3.0648,3.0646,3.0658,3.064,3.0652,3.0654,3.0658,3.0663,3.0568,3.0659,3.0658,3.0658,3.0658,3.0657,0,3.0715,3.0708,3.0718,3.0719,3.0728,3.0702,3.0701,3.0709,3.0724,3.0721,3.0727,3.0741,3.0751,3.0737,3.0744,3.0756,3.0745,3.0759,3.0758,3.0757,3.0679,3.0671,3.0768,3.0768,3.0768,3.0768,3.0768,3.0768,3.0768,3.0795,3.0782,3.0808,3.0801,3.0816,3.0817,3.0818,3.0815,3.0832,3.084,3.083,3.0822,3.0829,3.0836,3.0832,3.0836,3.0854,3.0846,3.0773,3.0763,3.0752,3.0745,3.0856,3.0856,3.0923,3.0923,3.0924]}]]